Regional Weather Roundup
Issued by NWS

Home | Current Version | Previous Version | Text Only | Print | Product List | Glossary On
Versions: 1 2 3 4 5 6 7 8 9 10 11 12 13 14 15 16 17 18 19 20 21 22 23 24 25 26 27 28 29 30 31 32 33 34 35 36 37 38 39 40 41 42 43 44 45 46 47 48 49 50
000
ASUS43 KMPX 240801
RWRMN
WEATHER ROUNDUP FOR MINNESOTA
NATIONAL WEATHER SERVICE TWIN CITIES/CHANHASSEN MN
300 AM CDT FRI OCT 24 2014


NOTE: "FAIR" INDICATES FEW OR NO CLOUDS BELOW 12,000 FEET WITH NO
SIGNIFICANT WEATHER AND/OR OBSTRUCTIONS TO VISIBILITY. N/A MEANS
CURRENT SKY AND/OR WEATHER CONDITIONS ARE NOT AVAILABLE.

MNZ060>063-068>070-240900-
   Twin Cities Metro

CITY           SKY/WX    TMP DP  RH WIND       PRES   REMARKS
TWIN CITIES    MOCLDY    47  45  93 E8        29.95F
ST PAUL        FOG       47  47 100 SE8       29.97S VSB 1/2
CRYSTAL        MOCLDY    48  46  93 SE6       29.93F
BLAINE         MOCLDY    50  50 100 SE8       29.94S
LAKEVILLE      MOCLDY    46  45  93 S5        29.96S
EDEN PRAIRIE   MOCLDY    48  45  89 S8        29.94F
SOUTH ST PAUL  FOG       47  46  96 SE5       29.96S VSB 1/2
LAKE ELMO      CLOUDY    46  46 100 S5        29.97S FOG
$$
MNZ001>005-007-008-013>017-022>024-027-028-240900-
   Northwest Minnesota

CITY           SKY/WX    TMP DP  RH WIND       PRES   REMARKS
BEMIDJI        CLOUDY    55  43  62 S6        29.82S
HALLOCK        MOCLDY    48  39  71 S8        29.72S
ROSEAU         CLOUDY    54  45  71 S12       29.72F
WARROAD        CLOUDY    52  43  71 S3        29.74S
THIEF RVR FALL PTCLDY    50  39  66 S12       29.77S
CROOKSTON      MOCLDY    48  43  81 S12       29.77S
FOSSTON        PTCLDY    50  43  76 S10       29.80F
DETROIT LAKES  PTCLDY    52  45  76 S3        29.84F
MOORHEAD       MOCLDY    48  45  87 S8        29.82F
PARK RAPIDS    CLOUDY    50  41  71 S6        29.85S
MAHNOMEN       FAIR      50  43  77 S10       29.82S
$$
MNZ006-009>011-018-025>026-240900-
   North Central Minnesota

CITY           SKY/WX    TMP DP  RH WIND       PRES   REMARKS
BAUDETTE       CLOUDY    51  40  65 S6        29.76F
FLAG ISLAND    CLOUDY    50  45  81 S8        29.73S
INTL FALLS     CLOUDY    51  40  65 VRB3      29.79S
WASKISH        CLOUDY    55  43  62 CALM      29.79S
BIG FORK       CLOUDY    52  41  66 S8        29.84S
LONGVILLE      CLOUDY    55  43  62 S3        29.86S
GRAND RAPIDS   CLOUDY    48  41  76 S9        29.87S
CRANE LAKE     MOCLDY    48  45  87 S5        29.84S
ORR            CLOUDY    48  41  76 S7        29.82R
COOK           CLOUDY    52  45  76 S8        29.85S
WALKER         FAIR      53  41  63 SW8       29.85R
$$
MNZ012-019>021-037-240900-
   Northeast Minnesota

CITY           SKY/WX    TMP DP  RH WIND       PRES   REMARKS
DULUTH         MOCLDY    49  46  90 SW14      29.91S FOG
ELY            MOCLDY    48  45  87 S5        29.86F
HIBBING        FOG       37  35  92 CALM      29.89R VSB 1/2
EVELETH        FOG       34  34 100 CALM      29.89S VSB 1/2
DULUTH HARBOR  MOCLDY    46  45  93 CALM      29.93S FOG
TWO HARBORS    HAZE      48  37  66 SW3       29.90S VSB 1/4
SILVER BAY     FOG       46  45  93 CALM      29.90S VSB<1/4
GRAND MARAIS     N/A     48  47  96 CALM      29.92F
G MARAIS ARPRT FOG       46  43  87 S5        29.92S VSB 1/4
$$
MNZ029>031-032-039>041-046>048-054>057-064-240900-
   West Central Minnesota

CITY           SKY/WX    TMP DP  RH WIND       PRES   REMARKS
FERGUS FALLS   MOCLDY    48  39  71 SE9       29.85F
WHEATON        MOCLDY    41  37  87 SE7       29.85S
MORRIS         MOCLDY    46  43  87 SE7       29.85S
ALEXANDRIA     MOCLDY    50  43  77 S8        29.88F
ELBOW LAKE     FAIR      47  42  83 SE7       29.85S
WADENA         MOCLDY    50  43  76 S7        29.86S
GLENWOOD       PTCLDY    48  43  81 E5        29.88F
APPLETON       MOCLDY    45  39  81 CALM      29.85F
BENSON         PTCLDY    48  45  87 S6        29.86F HAZE
ORTONVILLE     MOCLDY    46  41  81 SE5       29.84F
MADISON        MOCLDY    48  45  87 S6        29.84F
WILLMAR        FAIR      46  41  81 SE7       29.90S
$$
MNZ033>034-036-042>043-049>051-058-059-240900-
   Central Minnesota

CITY           SKY/WX    TMP DP  RH WIND       PRES   REMARKS
ST CLOUD       MOCLDY    48  40  73 SE3       29.92R
SAUK CENTRE    FAIR      47  42  81 SE5       29.89F
PAYNESVILLE    PTCLDY    50  40  70 SE7       29.91R
AITKIN         CLOUDY    52  45  76 S5        29.88S
PINE RIVER     MOCLDY    46  41  81 CALM      29.91S
BRAINERD       MOCLDY    46  39  76 S6        29.90R
STAPLES        MOCLDY    48  41  76 S7        29.87F
LONG PRAIRIE   FAIR      46  41  81 S7        29.89F
LITTLE FALLS   MOCLDY    45  37  76 CALM      29.90S
LITCHFIELD     PTCLDY    54  43  66 S5        29.91S
BUFFALO        MOCLDY    48  39  71 CALM      29.94S
MAPLE LAKE     PTCLDY    48  42  79 SE3       29.93R
$$
MNZ037-044-045-052-053-240900-
   East Central Minnesota

CITY           SKY/WX    TMP DP  RH WIND       PRES   REMARKS
PRINCETON      CLOUDY    50  45  81 CALM      29.93R
MORA           FOG       43  41  93 CALM      29.95R VSB 3/4
CAMBRIDGE      CLOUDY    52  43  71 SE3       29.92R
RUSH CITY      CLOUDY    47  46  97 SE3       29.94S
MOOSE LAKE     CLOUDY    46  46 100 S5        29.92R FOG
HINCKLEY       CLOUDY    46  46 100 CALM      29.94S FOG
CLOQUET        CLOUDY    48  46  93 S9        29.92S FOG
MCGREGOR       CLOUDY    48  45  87 S6        29.91R
$$
MNZ071>073-080-081-089-090-097-098-240900-
   Southwest Minnesota

CITY           SKY/WX    TMP DP  RH WIND       PRES   REMARKS
MONTEVIDEO     MOCLDY    50  45  81 S7        29.86F
GRANITE FALLS  MOCLDY    48  44  84 SE8       29.88F
CANBY          CLOUDY    56  47  71 SW12      29.86S
MARSHALL       MOCLDY    54  43  66 S15       29.86F
REDWOOD FALLS  PTCLDY    49  43  80 S8        29.90F
OLIVIA         PTCLDY    50  43  76 SE7       29.88F
PIPESTONE      MOCLDY    52  45  76 S10       29.87F
WINDOM         PTCLDY    52  45  76 S5        29.93F
WORTHINGTON    PTCLDY    52  45  76 S12       29.92F
JACKSON        PTCLDY    50  41  71 S8        29.94F
TRACY          MOCLDY    54  45  72 S13       29.89F
SLAYTON        MOCLDY    50  45  83 S9        29.90F
$$
MNZ065>067-074>077-082>085-091>093-240900-
   South Central Minnesota

CITY           SKY/WX    TMP DP  RH WIND       PRES   REMARKS
MANKATO        CLEAR     48  37  66 S9        29.95F
NEW ULM        CLEAR     46  43  87 S9        29.93S
ST JAMES       CLEAR     50  41  71 S8        29.94F
FAIRMONT       PTCLDY    45  37  76 S8        29.95F
GLENCOE        CLEAR     48  42  77 SE6       29.93S
FARIBAULT      PTCLDY    46  45  93 S5        29.97S
OWATONNA       PTCLDY    48  45  87 S8        29.97F
WASECA         PTCLDY    43  37  81 CALM      29.98F
ALBERT LEA     CLEAR     46  46 100 S3        29.98F FOG
$$
MNZ078>079-086>088-094>096-240900-
   Southeast Minnesota

CITY           SKY/WX    TMP DP  RH WIND       PRES   REMARKS
ROCHESTER      FOG       46  46 100 S8        30.01F VSB 1/4
RED WING       CLOUDY    48  48 100 SE6       29.98S FOG
STANTON        PTCLDY    49  45  87 S7        29.95F
DODGE CENTER   PTCLDY    45  45 100 S8        29.99F FOG
WINONA         CLOUDY    52  50  93 SE3       30.02F
AUSTIN         MIX PCPN  45  45 100 CALM      30.00F VSB 1/4
PRESTON        FOG       48  48  97 S6        30.01F VSB 1/4
$$
ABBREVIATIONS USED IN REMARKS
   TC - TEMPERATURES IN CELSIUS
  WCI - WIND CHILL INDEX
   HX - HEAT INDEX
  VSB - VISIBILITY
$$



USA.gov is the U.S. government's official web portal to all federal, state and local government web resources and services.